Content
SEND FEEDBACK

Daily
Averages
Monthly
Summary
France

LE HAVRE, FRANCE


Home > Europe > France
Elevation: 338 feet     Latitude: 49 31N     Longitude: 000 04E

WEATHER
 
SELECT A DAY
Number of Records: 183,810;   Date Range: 3/4/97 - 10/23/14
 
SHARE

PRINT THIS DATA

[ ← Previous Day ]
WEATHER ALMANAC - JULY 8, 2013
[ Next Day → ]
[ °C ]   °F
We're sorry. There is no daily almanac available for Le Havre, France on July 8, 2013.
WEATHER BY HOUR - JULY 8, 2013
[ °C ]   °F
Local TimeTemperatureDewpointHumidityBarometerVisibilityWind DirectionWind SpeedGust SpeedPrecipitationEventsConditions
12:30 AM62.6 °F53.6 °F72 %30.42 in6.2 miNE (50°)11.5 mph
1:00 AM62.6 °F53.6 °F72 %30.42 in6.2 miNE (50°)11.5 mph
1:30 AM60.8 °F53.6 °F77 %30.42 in6.2 miENE (60°)11.5 mph
2:00 AM60.8 °F53.6 °F77 %30.42 in6.2 miENE (60°)11.5 mph
2:30 AM59.0 °F53.6 °F82 %30.42 in6.2 miENE (60°)11.5 mph
3:00 AM59.0 °F53.6 °F82 %30.42 in6.2 miENE (70°)10.4 mph
3:30 AM59.0 °F53.6 °F82 %30.42 in6.2 miENE (70°)11.5 mph
4:00 AM59.0 °F53.6 °F82 %30.42 in6.2 miENE (70°)11.5 mph
4:30 AM59.0 °F53.6 °F82 %30.42 in6.2 miENE (70°)10.4 mph
5:00 AM59.0 °F51.8 °F77 %30.42 in6.2 miENE (60°)11.5 mph
5:30 AM59.0 °F51.8 °F77 %30.42 in6.2 miENE (70°)10.4 mph
6:00 AM57.2 °F51.8 °F82 %30.42 in6.2 miENE (60°)11.5 mph
6:30 AM57.2 °F51.8 °F82 %30.42 in6.2 miENE (60°)10.4 mph
7:00 AM57.2 °F53.6 °F88 %30.42 in6.2 miENE (70°)9.2 mph
7:30 AM59.0 °F53.6 °F82 %30.42 in6.2 miENE (60°)8.1 mph
8:00 AM60.8 °F55.4 °F82 %30.42 in6.2 miENE (60°)9.2 mph
8:30 AM62.6 °F55.4 °F77 %30.42 in6.2 miENE (60°)10.4 mph
9:00 AM64.4 °F55.4 °F73 %30.42 in6.2 miENE (60°)9.2 mph
9:30 AM68.0 °F57.2 °F68 %30.42 in6.2 miNE (50°)10.4 mph
10:00 AM69.8 °F57.2 °F64 %30.42 in6.2 miNE (50°)11.5 mph
10:30 AM71.6 °F57.2 °F60 %30.42 in6.2 miNE (50°)10.4 mph
11:00 AM73.4 °F57.2 °F57 %30.42 in6.2 miENE (60°)12.7 mph
11:30 AM73.4 °F59.0 °F61 %30.42 in6.2 miNE (40°)12.7 mph
12:00 PM73.4 °F59.0 °F61 %30.42 in6.2 miNNE (20°)11.5 mph
12:30 PM73.4 °F59.0 °F61 %30.42 in6.2 miNNE (20°)12.7 mph
1:00 PM71.6 °F59.0 °F64 %30.42 in6.2 miNNE (20°)13.8 mph
1:30 PM71.6 °F57.2 °F60 %30.39 in6.2 miNNE (30°)16.1 mph
2:00 PM71.6 °F57.2 °F60 %30.39 in6.2 miNNE (30°)16.1 mph
2:30 PM73.4 °F57.2 °F57 %30.39 in6.2 miNNE (30°)16.1 mph
3:00 PM73.4 °F59.0 °F61 %30.39 in6.2 miNE (40°)15.0 mph
3:30 PM75.2 °F59.0 °F57 %30.39 in6.2 miNNE (30°)17.3 mph
4:00 PM75.2 °F59.0 °F57 %30.39 in6.2 miNE (40°)18.4 mph
4:30 PM75.2 °F59.0 °F57 %30.36 in6.2 miNNE (30°)17.3 mph
5:00 PM75.2 °F59.0 °F57 %30.36 in6.2 miNE (40°)19.6 mph
5:30 PM75.2 °F59.0 °F57 %30.36 in6.2 miNNE (30°)19.6 mph
6:00 PM73.4 °F57.2 °F57 %30.36 in6.2 miNE (40°)18.4 mph
6:30 PM71.6 °F55.4 °F57 %30.36 in6.2 miNE (40°)19.6 mph
7:00 PM71.6 °F55.4 °F57 %30.36 in6.2 miNE (40°)20.7 mph
7:30 PM69.8 °F55.4 °F60 %30.36 in6.2 miNE (40°)18.4 mph
8:00 PM69.8 °F55.4 °F60 %30.36 in6.2 miNE (40°)16.1 mph
8:30 PM68.0 °F55.4 °F64 %30.33 in6.2 miNE (40°)12.7 mph
9:00 PM66.2 °F55.4 °F68 %30.33 in6.2 miNE (40°)11.5 mph
9:30 PM64.4 °F53.6 °F68 %30.33 in6.2 miNE (50°)12.7 mph
10:00 PM62.6 °F53.6 °F72 %30.33 in6.2 miNE (50°)15.0 mph
10:30 PM60.8 °F53.6 °F77 %30.36 in6.2 miENE (60°)12.7 mph
11:00 PM60.8 °F53.6 °F77 %30.36 in6.2 miENE (60°)12.7 mph
11:30 PM59.0 °F53.6 °F82 %30.36 in6.2 miENE (60°)12.7 mph
Hourly data recorded from LFOH, located miles away from Le Havre, France







STORIES FROM OUR PARTNERS